TimeCET,TemperatureF,Dew PointF,Humidity,Sea Level PressureIn,VisibilityMPH,Wind Direction,Wind SpeedMPH,Gust SpeedMPH,PrecipitationIn,Events,Conditions,WindDirDegrees,DateUTC
12:00 AM,51.8,33.8,50,29.86,6.2,NW,11.5,26.5,N/A,,Scattered Clouds,310,2013-03-14 23:00:00
12:30 AM,50.0,35.6,58,29.86,6.2,WNW,12.7,-,N/A,,Scattered Clouds,300,2013-03-14 23:30:00
1:00 AM,49,33,41,29.88,9,NW,11.5,,,,Partly Cloudy,310,2013-03-15 00:00:00
1:00 AM,50.0,35.6,58,29.86,6.2,NW,15.0,-,N/A,,Scattered Clouds,310,2013-03-15 00:00:00
1:30 AM,50.0,37.4,62,29.86,6.2,NW,15.0,-,N/A,,Scattered Clouds,320,2013-03-15 00:30:00
2:00 AM,50.0,35.6,58,29.86,6.2,NNW,17.3,-,N/A,,Scattered Clouds,330,2013-03-15 01:00:00
2:30 AM,50.0,35.6,58,29.86,6.2,NNW,15.0,-,N/A,,Scattered Clouds,330,2013-03-15 01:30:00
3:00 AM,48.2,35.6,62,29.86,6.2,NNW,17.3,-,N/A,,Scattered Clouds,340,2013-03-15 02:00:00
3:30 AM,48.2,33.8,58,29.89,6.2,WSW,1.2,-,N/A,,Partly Cloudy,240,2013-03-15 02:30:00
4:00 AM,48.2,33.8,58,29.89,6.2,NW,4.6,-,N/A,,Partly Cloudy,310,2013-03-15 03:00:00
4:30 AM,48.2,33.8,58,29.89,6.2,NW,5.8,-,N/A,,Partly Cloudy,320,2013-03-15 03:30:00
5:00 AM,48.2,33.8,58,29.86,6.2,NW,6.9,-,N/A,,Partly Cloudy,320,2013-03-15 04:00:00
5:30 AM,48.2,33.8,58,29.89,6.2,NW,5.8,-,N/A,,Partly Cloudy,310,2013-03-15 04:30:00
6:00 AM,48.2,33.8,58,29.92,6.2,SW,4.6,-,N/A,,Partly Cloudy,230,2013-03-15 05:00:00
6:30 AM,46.4,33.8,62,29.92,6.2,West,4.6,-,N/A,,Partly Cloudy,260,2013-03-15 05:30:00
7:00 AM,46,31,43,29.94,17,South,3.5,,,,Scattered Clouds,190,2013-03-15 06:00:00
7:30 AM,48.2,33.8,58,29.95,6.2,NNW,15.0,-,N/A,,Partly Cloudy,330,2013-03-15 06:30:00
8:00 AM,48.2,33.8,58,29.95,6.2,NW,15.0,-,N/A,,Partly Cloudy,320,2013-03-15 07:00:00
8:30 AM,50.0,33.8,54,29.95,6.2,NNW,15.0,-,N/A,,Partly Cloudy,330,2013-03-15 07:30:00
9:00 AM,50.0,33.8,54,29.95,6.2,NNW,11.5,-,N/A,,Partly Cloudy,330,2013-03-15 08:00:00
9:30 AM,51.8,33.8,50,29.98,6.2,NNW,9.2,21.9,N/A,,Partly Cloudy,330,2013-03-15 08:30:00
10:00 AM,51.8,33.8,50,29.98,6.2,North,12.7,-,N/A,,Partly Cloudy,350,2013-03-15 09:00:00
10:30 AM,53.6,35.6,51,30.01,6.2,NNW,11.5,-,N/A,,Partly Cloudy,330,2013-03-15 09:30:00
11:00 AM,53.6,35.6,51,30.01,6.2,NW,13.8,-,N/A,,Partly Cloudy,320,2013-03-15 10:00:00
11:30 AM,53.6,35.6,51,30.01,6.2,NW,11.5,-,N/A,,Partly Cloudy,310,2013-03-15 10:30:00
12:00 PM,53.6,35.6,51,30.04,6.2,WNW,10.4,-,N/A,,Partly Cloudy,300,2013-03-15 11:00:00
12:30 PM,53.6,33.8,47,30.04,6.2,NW,10.4,-,N/A,,Partly Cloudy,320,2013-03-15 11:30:00
1:00 PM,54,29,25,30.04,19,WNW,13.8,,,,Scattered Clouds,300,2013-03-15 12:00:00
1:00 PM,53.6,35.6,51,30.04,6.2,NW,12.7,-,N/A,,Partly Cloudy,320,2013-03-15 12:00:00
1:30 PM,55.4,32.0,41,30.04,6.2,WNW,12.7,-,N/A,,Partly Cloudy,290,2013-03-15 12:30:00
2:00 PM,55.4,35.6,47,30.01,6.2,NW,11.5,23.0,N/A,,Partly Cloudy,310,2013-03-15 13:00:00
2:30 PM,55.4,32.0,41,30.01,6.2,NW,11.5,-,N/A,,Partly Cloudy,320,2013-03-15 13:30:00
3:00 PM,55.4,33.8,44,30.01,6.2,NNW,10.4,-,N/A,,Partly Cloudy,330,2013-03-15 14:00:00
3:30 PM,55.4,32.0,41,30.01,6.2,NNW,11.5,-,N/A,,Partly Cloudy,340,2013-03-15 14:30:00
4:00 PM,55.4,32.0,41,30.04,6.2,NNW,11.5,-,N/A,,Partly Cloudy,330,2013-03-15 15:00:00
4:30 PM,55.4,28.4,36,30.04,6.2,NW,11.5,-,N/A,,Partly Cloudy,310,2013-03-15 15:30:00
5:00 PM,53.6,32.0,44,30.04,6.2,WNW,9.2,-,N/A,,Partly Cloudy,300,2013-03-15 16:00:00
5:30 PM,53.6,30.2,41,30.04,6.2,WNW,8.1,-,N/A,,Partly Cloudy,290,2013-03-15 16:30:00
6:00 PM,53.6,33.8,47,30.04,6.2,West,9.2,-,N/A,,Partly Cloudy,280,2013-03-15 17:00:00
6:30 PM,51.8,32.0,47,30.04,6.2,WNW,4.6,-,N/A,,Partly Cloudy,300,2013-03-15 17:30:00
7:00 PM,49,28,30,30.05,19,NNW,4.6,,,,Scattered Clouds,340,2013-03-15 18:00:00
7:00 PM,50.0,32.0,50,30.04,6.2,NNW,5.8,-,N/A,,Partly Cloudy,330,2013-03-15 18:00:00
7:30 PM,46.4,30.2,53,30.06,-9999.0,Variable,1.2,-,N/A,,Clear,0,2013-03-15 18:30:00
8:00 PM,48.2,32.0,54,30.06,-9999.0,NW,3.5,-,N/A,,Clear,320,2013-03-15 19:00:00
8:30 PM,46.4,32.0,57,30.06,-9999.0,WNW,1.2,-,N/A,,Clear,300,2013-03-15 19:30:00
9:00 PM,41.0,32.0,70,30.09,-9999.0,Calm,Calm,-,N/A,,Clear,0,2013-03-15 20:00:00
9:30 PM,42.8,32.0,66,30.09,-9999.0,Calm,Calm,-,N/A,,Clear,0,2013-03-15 20:30:00
10:30 PM,37.4,30.2,75,30.09,-9999.0,Calm,Calm,-,N/A,,Clear,0,2013-03-15 21:30:00
11:00 PM,37.4,32.0,81,30.09,-9999.0,Calm,Calm,-,N/A,,Clear,0,2013-03-15 22:00:00
11:30 PM,35.6,30.2,81,30.09,-9999.0,Calm,Calm,-,N/A,,Clear,0,2013-03-15 22:30:00